Weather History for KRSV - July, 2013

Change the Weather History Date:

Friday, July 26, 2013

  Actual Average (KLWV) Record (KLWV)
Temperature  
Mean Temperature 70 °F 78 °F  
Max Temperature 80 °F 88 °F 97 °F (1997)
Min Temperature 59 °F 67 °F 57 °F (2004)
Degree Days  
Heating Degree Days 0 0  
Month to date heating degree days 0  
Since 1 June heating degree days 7  
Since 1 July heating degree days 0  
Cooling Degree Days 4 13  
Month to date cooling degree days 338  
Year to date cooling degree days 767  
Since 1 June cooling degree days 628  
Growing Degree Days 20 (Base 50)    
Moisture  
Dew Point 63 °F    
Average Humidity 77    
Maximum Humidity 98    
Minimum Humidity 52    
Precipitation  
Precipitation 0.00 in 0.12 in 1.34 in (1988)
Month to date precipitation 3.86  
Year to date precipitation 25.40  
Sea Level Pressure  
Sea Level Pressure 30.05 in    
Wind  
Wind Speed 3 mph (SSW)    
Max Wind Speed 9 mph    
Max Gust Speed -    
Visibility 8 miles    
Events Rain    
T = Trace of Precipitation, MM = Missing Value Source: NWS Daily Summary

Daily Weather History Graph

Daily Weather History Graph

Search for Another Location

Airport or City:

Trip Planner

Search our weather history database for the weather conditions in past years. The results will help you decide how hot, cold, wet, or windy it might be!

Date:

Astronomy

Jul. 26, 2013 Rise Set
Actual Time 5:46 AM CDT 8:07 PM CDT
Civil Twilight 5:16 AM CDT 8:37 PM CDT
Nautical Twilight 4:38 AM CDT 9:14 PM CDT
Astronomical Twilight 3:57 AM CDT 9:55 PM CDT
Moon 10:24 PM CDT (7/26) 10:19 AM CDT (7/26)
Length of Visible Light 15h 21m
Length of Day
14h 21m
Waning Gibbous, 80% of the Moon is Illuminated
Jul 26
Waning Gibbous
Jul 29
Last Quarter
Aug 6
New
Aug 14
First Quarter
Aug 20
Full

Hourly Weather History & Observations

Time (CDT) Temp. Heat Index Dew Point Humidity Pressure Visibility Wind Dir Wind Speed Gust Speed Precip Events Conditions
12:15 AM 62.4 °F - 61.5 °F 97% 30.10 in 7.0 mi Calm Calm - N/A   Clear
12:35 AM 62.6 °F - 61.7 °F 97% 30.09 in 5.0 mi Calm Calm - N/A   Clear
12:55 AM 61.9 °F - 61.2 °F 97% 30.09 in 5.0 mi Calm Calm - N/A   Clear
1:15 AM 61.7 °F - 60.8 °F 97% 30.09 in 5.0 mi Calm Calm - N/A   Clear
1:35 AM 61.7 °F - 60.8 °F 97% 30.09 in 4.0 mi Calm Calm - N/A   Clear
1:55 AM 61.3 °F - 60.6 °F 97% 30.09 in 5.0 mi Calm Calm - N/A   Clear
2:15 AM 61.2 °F - 60.4 °F 97% 30.09 in 4.0 mi Calm Calm - N/A   Clear
2:35 AM 60.8 °F - 60.1 °F 97% 30.09 in 5.0 mi Calm Calm - N/A   Clear
2:55 AM 60.8 °F - 59.9 °F 97% 30.09 in 1.8 mi Calm Calm - N/A   Mist
3:15 AM 60.3 °F - 59.5 °F 97% 30.08 in 1.2 mi Calm Calm - N/A   Mist
3:55 AM 60.1 °F - 59.5 °F 98% 30.07 in 1.0 mi Calm Calm - N/A   Mist
4:15 AM 59.5 °F - 59.0 °F 98% 30.07 in 1.5 mi Calm Calm - N/A   Mist
4:35 AM 59.5 °F - 59.0 °F 98% 30.08 in 1.0 mi Calm Calm - N/A   Mist
4:55 AM 59.2 °F - 58.6 °F 98% 30.08 in 2.0 mi Calm Calm - N/A   Clear
5:15 AM 59.4 °F - 58.8 °F 98% 30.08 in 3.0 mi Calm Calm - N/A   Clear
5:35 AM 59.5 °F - 59.0 °F 98% 30.08 in 1.5 mi Calm Calm - N/A   Mist
5:55 AM 59.0 °F - 58.3 °F 97% 30.07 in 5.0 mi Calm Calm - N/A   Clear
6:15 AM 59.7 °F - 59.0 °F 97% 30.07 in 3.0 mi Calm Calm - N/A   Clear
6:35 AM 60.8 °F - 60.1 °F 97% 30.08 in 4.0 mi Calm Calm - N/A   Clear
6:55 AM 62.1 °F - 61.5 °F 98% 30.08 in 5.0 mi Calm Calm - N/A   Clear
7:15 AM 63.5 °F - 62.8 °F 97% 30.09 in 7.0 mi Calm Calm - N/A   Clear
7:35 AM 65.3 °F - 64.6 °F 98% 30.09 in 10.0 mi Calm Calm - N/A   Clear
7:55 AM 67.5 °F - 64.2 °F 89% 30.09 in 10.0 mi Calm Calm - N/A   Clear
8:15 AM 69.6 °F - 64.9 °F 85% 30.09 in 10.0 mi Calm Calm - N/A   Clear
8:55 AM 72.1 °F - 64.8 °F 78% 30.08 in 10.0 mi SSE 3.5 mph - N/A   Clear
9:15 AM 73.9 °F - 64.9 °F 73% 30.09 in 10.0 mi SSE 4.6 mph - N/A   Clear
9:35 AM 75.2 °F - 63.3 °F 66% 30.08 in 10.0 mi SSE 4.6 mph - N/A   Clear
9:55 AM 76.1 °F - 63.7 °F 65% 30.08 in 10.0 mi SSE 6.9 mph - N/A   Clear
10:15 AM 76.6 °F - 62.6 °F 62% 30.09 in 10.0 mi SSW 5.8 mph - N/A   Clear
10:35 AM 77.2 °F - 61.9 °F 59% 30.09 in 10.0 mi SSW 8.1 mph - N/A   Scattered Clouds
10:55 AM 77.4 °F - 60.8 °F 57% 30.08 in 10.0 mi SW 4.6 mph - N/A   Scattered Clouds
11:15 AM 78.4 °F - 59.9 °F 53% 30.08 in 10.0 mi SW 8.1 mph - N/A   Clear
11:35 AM 78.8 °F - 60.4 °F 53% 30.08 in 10.0 mi SW 5.8 mph - N/A   Clear
11:55 AM 79.0 °F - 61.5 °F 55% 30.08 in 10.0 mi SW 5.8 mph - N/A   Clear
12:15 PM 79.5 °F - 60.8 °F 53% 30.08 in 10.0 mi WSW 6.9 mph - N/A   Clear
12:35 PM 80.4 °F 81.7 °F 63.1 °F 55% 30.07 in 10.0 mi SSW 9.2 mph - N/A   Clear
12:55 PM 79.5 °F - 62.2 °F 55% 30.06 in 10.0 mi South 8.1 mph - N/A   Scattered Clouds
1:15 PM 79.2 °F - 62.2 °F 56% 30.06 in 10.0 mi SSW 6.9 mph - N/A   Scattered Clouds
1:35 PM 79.3 °F - 60.6 °F 53% 30.05 in 10.0 mi SW 5.8 mph - N/A   Clear
1:55 PM 79.7 °F - 60.6 °F 52% 30.05 in 10.0 mi SW 5.8 mph - N/A   Clear
2:15 PM 79.2 °F - 61.9 °F 55% 30.05 in 10.0 mi SSW 4.6 mph - N/A   Clear
2:35 PM 78.8 °F - 62.4 °F 57% 30.05 in 10.0 mi SSW 6.9 mph - N/A   Clear
2:55 PM 79.5 °F - 63.0 °F 57% 30.04 in 10.0 mi SSW 5.8 mph - N/A   Clear
3:15 PM 79.0 °F - 62.2 °F 56% 30.04 in 10.0 mi SSW 4.6 mph - N/A   Mostly Cloudy
3:35 PM 79.0 °F - 63.1 °F 58% 30.03 in 10.0 mi South 6.9 mph - N/A   Overcast
3:55 PM 79.5 °F - 63.7 °F 58% 30.03 in 10.0 mi SSW 6.9 mph - N/A   Mostly Cloudy
4:15 PM 79.7 °F - 63.5 °F 58% 30.03 in 10.0 mi SW 5.8 mph - N/A   Scattered Clouds
4:35 PM 79.0 °F - 63.3 °F 59% 30.02 in 10.0 mi SSW 6.9 mph - N/A   Scattered Clouds
4:55 PM 78.4 °F - 63.1 °F 59% 30.03 in 10.0 mi SW 6.9 mph - N/A   Mostly Cloudy
5:15 PM 77.4 °F - 64.0 °F 63% 30.02 in 10.0 mi SSW 3.5 mph - N/A   Mostly Cloudy
5:35 PM 77.0 °F - 64.8 °F 66% 30.02 in 10.0 mi SSW 3.5 mph - N/A   Mostly Cloudy
5:55 PM 76.5 °F - 66.0 °F 70% 30.01 in 10.0 mi SSW 3.5 mph - N/A   Overcast
6:15 PM 77.0 °F - 64.9 °F 66% 30.01 in 10.0 mi SW 8.1 mph - N/A   Overcast
6:35 PM 76.5 °F - 63.5 °F 64% 30.01 in 10.0 mi SW 6.9 mph - N/A   Mostly Cloudy
6:55 PM 76.1 °F - 63.7 °F 65% 30.01 in 10.0 mi SW 8.1 mph - N/A   Mostly Cloudy
7:15 PM 74.8 °F - 64.6 °F 70% 30.00 in 10.0 mi SSW 5.8 mph - N/A   Light Drizzle
7:35 PM 74.7 °F - 65.3 °F 73% 30.00 in 10.0 mi SW 8.1 mph - N/A   Overcast
7:55 PM 74.5 °F - 64.6 °F 71% 30.00 in 10.0 mi SW 8.1 mph - N/A   Overcast
8:15 PM 73.8 °F - 64.9 °F 74% 30.00 in 10.0 mi SW 9.2 mph - N/A   Mostly Cloudy
8:35 PM 73.0 °F - 65.3 °F 77% 29.99 in 10.0 mi SSW 6.9 mph - N/A   Mostly Cloudy
8:55 PM 72.5 °F - 65.5 °F 79% 30.00 in 10.0 mi SW 3.5 mph - N/A   Scattered Clouds
9:15 PM 71.6 °F - 65.7 °F 81% 30.00 in 10.0 mi SSW 4.6 mph - N/A   Scattered Clouds
9:35 PM 71.6 °F - 64.9 °F 79% 29.99 in 10.0 mi SSW 5.8 mph - N/A   Scattered Clouds
9:55 PM 71.2 °F - 65.1 °F 81% 29.99 in 10.0 mi SSW 5.8 mph - N/A   Scattered Clouds
10:15 PM 70.9 °F - 65.5 °F 83% 29.99 in 10.0 mi South 4.6 mph - N/A   Scattered Clouds
10:35 PM 70.7 °F - 66.2 °F 86% 29.99 in 10.0 mi South 6.9 mph - N/A Rain Light Rain
10:55 PM 70.3 °F - 66.4 °F 87% 29.98 in 10.0 mi South 4.6 mph - N/A   Mostly Cloudy
11:15 PM 70.0 °F - 66.6 °F 89% 29.97 in 10.0 mi South 5.8 mph - N/A   Scattered Clouds
11:35 PM 69.8 °F - 67.1 °F 91% 29.96 in 10.0 mi South 5.8 mph - N/A   Overcast
11:55 PM 69.8 °F - 67.1 °F 91% 29.96 in 10.0 mi South 8.1 mph - N/A   Overcast